Regional Weather Roundup
Issued by NWS Bismarck, ND

Home | Current Version | Previous Version | Text Only | Print | Product List | Glossary On
Versions: 1 2 3 4 5 6 7 8 9 10 11 12 13 14 15 16 17 18 19 20 21 22 23 24 25 26 27 28 29 30 31 32 33 34 35 36 37 38 39 40 41 42 43 44 45 46 47 48 49 50
000
ASUS43 KBIS 272210
RWRBIS

NWR BROADCAST TEXT
NATIONAL WEATHER SERVICE BISMARCK ND
400 PM CST FRI FEB 27 2015

NOTE: "FAIR" INDICATES FEW OR NO CLOUDS BELOW 12,000 FEET WITH NO
SIGNIFICANT WEATHER AND/OR OBSTRUCTIONS TO VISIBILITY.


CITY           SKY/WX    TMP DP  RH WIND       PRES   REMARKS
WILLISTON      SUNNY     25   5  42 SE10      30.07F WCI  15
MINOT          SUNNY     18   2  49 S15       30.17F WCI   4
MINOT AFB      SUNNY     16   5  62 S12       30.17F WCI   3
BISMARCK       SUNNY     20   5  52 S15       30.24F WCI   6
DICKINSON      SUNNY     25   5  42 S18       30.04F WCI  11
GARRISON         N/A     19   5  54 S15       30.15F WCI   5
HETTINGER ARPT SUNNY     26   5  40 S15G24    30.06F WCI  14
JAMESTOWN      SUNNY     15   1  53 S14       30.30F WCI   0
BEACH          FAIR      25   7  46 S16       30.02F WCI  12
CARRINGTON     FAIR      14   5  67 MISG      30.29F
CROSBY         FAIR      18   5  57 S12       30.10F WCI   5
HARVEY         FAIR      14   1  57 S12       30.24F WCI   0
HAZEN          FAIR      21   3  45 S17       30.17F WCI   7
LINTON         FAIR      18   5  57 S15       30.25F WCI   3
MANDAN         FAIR      19   7  58 S14       30.21F WCI   6
OAKES            N/A     14   5  67 S14       30.37F WCI  -1
RUGBY          FAIR      14   1  57 S9        30.23F WCI   2
WATFORD CITY   FAIR      25   5  42 S14G20    30.05F WCI  13
$$

CITY           SKY/WX    TMP DP  RH WIND       PRES   REMARKS
GRAND FORKS    MOSUNNY   17   3  54 SW12      30.37F WCI   4
GRAND FORKS AF SUNNY     18   2  48 SW13      30.36F WCI   5
DEVILS LAKE    SUNNY     12   1  62 SW12      30.29S WCI  -2
FARGO          SUNNY     17   1  49 SW8       30.42F WCI   7
CANDO          FAIR      16   1  53 S12       30.26F WCI   3
CAVALIER       FAIR      16   1  53 SW9       30.34S WCI   4
GWINNER        CLEAR     18   1  49 S12       30.40F WCI   5
ROLLA          FAIR      10   1  67 SW10      30.22S WCI  -3
WALHALLA         N/A     14   1  57 SW9       30.32F WCI   2
$$

CITY           SKY/WX    TMP DP  RH WIND       PRES   REMARKS
ABERDEEN       SUNNY     15   3  59 S10       30.39F WCI   2
MOBRIDGE       SUNNY     21   6  52 S16G25    30.23F WCI   7
BUFFALO          N/A     26  10  50 S18       29.94S WCI  13
RAPID CITY     CLOUDY    23  12  62 S22       30.03F WCI   8
GLASGOW        MOSUNNY   21   5  50 CALM      30.02S
SIDNEY         MOSUNNY   28   5  37 S9G18     30.07F WCI  20
WOLF POINT     PTSUNNY   27   8  44 S5        30.04S
GLENDIVE       MOSUNNY   28   7  40 S14G20    30.01F WCI  17
MILES CITY     SUNNY     25  10  53 S7        29.99S WCI  17
BAKER          SUNNY     24   8  50 SE13      30.01S WCI  12
$$

CITY           SKY/WX    TMP DP  RH WIND       PRES   REMARKS
BILLINGS       MOSUNNY   27   9  46 VRB3      29.90F
GREAT FALLS    CLOUDY    19  12  74 NW5       30.01R WCI  12
REGINA         CLOUDY     5  -2  72 SE5       30.10S WCI  -4
ESTEVAN        PTSUNNY   16   3  57 S9        30.11F WCI   4
$$



USA.gov is the U.S. government's official web portal to all federal, state and local government web resources and services.